Weather History for KMMH - September, 2013

Change the Weather History Date:

Monday, September 9, 2013

  Actual Average (KBIH) Record (KBIH)
Temperature  
Mean Temperature 62 °F 70 °F  
Max Temperature 80 °F 91 °F 101 °F (1993)
Min Temperature 44 °F 49 °F 37 °F (1964)
Degree Days  
Heating Degree Days 3 1  
Month to date heating degree days 2  
Since 1 July heating degree days 4  
Cooling Degree Days 0 5  
Month to date cooling degree days 56  
Year to date cooling degree days 1033  
Growing Degree Days 12 (Base 50)    
Moisture  
Dew Point 26 °F    
Average Humidity 28    
Maximum Humidity 50    
Minimum Humidity 11    
Precipitation  
Precipitation 0.00 in 0.00 in 0.13 in (1975)
Month to date precipitation 0.03  
Year to date precipitation 3.40  
Snow  
Snow 0.00 in 0.00 in - ()
Month to date snowfall 0.0  
Since 1 July snowfall 0.0  
Since 1 September snowfall 0.0  
Snow Depth -    
Sea Level Pressure  
Sea Level Pressure 30.17 in    
Wind  
Wind Speed 3 mph (NNW)    
Max Wind Speed 13 mph    
Max Gust Speed 22 mph    
Visibility 10 miles    
Events      
T = Trace of Precipitation, MM = Missing Value Source: NWS Daily Summary

Daily Weather History Graph

Daily Weather History Graph

Search for Another Location

Airport or City:

Trip Planner

Search our weather history database for the weather conditions in past years. The results will help you decide how hot, cold, wet, or windy it might be!

Date:

Astronomy

Sep. 09, 2013 Rise Set
Actual Time 6:32 AM PDT 7:11 PM PDT
Civil Twilight 6:06 AM PDT 7:38 PM PDT
Nautical Twilight 5:34 AM PDT 8:09 PM PDT
Astronomical Twilight 5:02 AM PDT 8:41 PM PDT
Moon 10:53 AM PDT (9/9) 9:38 PM PDT (9/9)
Length of Visible Light 13h 32m
Length of Day
12h 39m
Waxing Crescent, 20% of the Moon is Illuminated
Sep 9
Waxing Crescent
Sep 12
First Quarter
Sep 19
Full
Sep 26
Last Quarter
Oct 4
New

Hourly Weather History & Observations

Time (PDT) Temp. Windchill Dew Point Humidity Pressure Visibility Wind Dir Wind Speed Gust Speed Precip Events Conditions
12:15 AM 57.2 °F - 30.2 °F 36% 30.21 in 10.0 mi Calm Calm - N/A   Mostly Cloudy
12:35 AM 55.4 °F - 30.2 °F 38% 30.22 in 10.0 mi Calm Calm - N/A   Overcast
12:55 AM 55.4 °F - 30.2 °F 38% 30.22 in 10.0 mi West 3.5 mph - N/A   Mostly Cloudy
1:15 AM 55.4 °F - 30.2 °F 38% 30.22 in 10.0 mi Calm Calm - N/A   Clear
1:35 AM 51.8 °F - 30.2 °F 44% 30.22 in 10.0 mi Calm Calm - N/A   Clear
1:55 AM 51.8 °F - 30.2 °F 44% 30.22 in 10.0 mi NNW 3.5 mph - N/A   Clear
2:15 AM 51.8 °F - 30.2 °F 44% 30.22 in 10.0 mi WNW 3.5 mph - N/A   Clear
2:35 AM 50.0 °F - 30.2 °F 47% 30.21 in 10.0 mi Calm Calm - N/A   Clear
2:55 AM 50.0 °F - 30.2 °F 47% 30.21 in 10.0 mi NW 5.8 mph - N/A   Clear
3:15 AM 51.8 °F - 30.2 °F 44% 30.20 in 10.0 mi WNW 5.8 mph - N/A   Clear
3:35 AM 50.0 °F - 30.2 °F 47% 30.20 in 10.0 mi North 3.5 mph - N/A   Clear
3:55 AM 48.2 °F - 30.2 °F 50% 30.20 in 10.0 mi Calm Calm - N/A   Clear
4:15 AM 48.2 °F - 30.2 °F 50% 30.20 in 10.0 mi Calm Calm - N/A   Clear
4:35 AM 48.2 °F - 28.4 °F 46% 30.20 in 10.0 mi NNW 3.5 mph - N/A   Clear
4:55 AM 46.4 °F - 28.4 °F 50% 30.20 in 10.0 mi Calm Calm - N/A   Clear
5:15 AM 46.4 °F - 28.4 °F 50% 30.20 in 10.0 mi Calm Calm - N/A   Clear
5:35 AM 46.4 °F 45.2 °F 28.4 °F 50% 30.21 in 10.0 mi NNW 3.5 mph - N/A   Clear
5:55 AM 44.6 °F - 26.6 °F 49% 30.21 in 10.0 mi Calm Calm - N/A   Clear
6:15 AM 44.6 °F 43.1 °F 26.6 °F 49% 30.22 in 10.0 mi WNW 3.5 mph - N/A   Clear
6:35 AM 48.2 °F - 24.8 °F 40% 30.22 in 10.0 mi West 4.6 mph - N/A   Clear
6:55 AM 46.4 °F 42.9 °F 24.8 °F 43% 30.22 in 10.0 mi WNW 6.9 mph - N/A   Clear
7:15 AM 46.4 °F - 24.8 °F 43% 30.22 in 10.0 mi Calm Calm - N/A   Clear
7:35 AM 50.0 °F - 24.8 °F 37% 30.22 in 10.0 mi North 3.5 mph - N/A   Clear
7:55 AM 55.4 °F - 26.6 °F 33% 30.22 in 10.0 mi Calm Calm - N/A   Clear
8:15 AM 59.0 °F - 24.8 °F 27% 30.22 in 10.0 mi Calm Calm - N/A   Clear
8:35 AM 62.6 °F - 26.6 °F 26% 30.22 in 10.0 mi Calm Calm - N/A   Clear
8:55 AM 66.2 °F - 24.8 °F 21% 30.22 in 10.0 mi West 4.6 mph - N/A   Clear
9:15 AM 68.0 °F - 21.2 °F 17% 30.22 in 10.0 mi West 3.5 mph - N/A   Clear
9:35 AM 69.8 °F - 21.2 °F 16% 30.22 in 10.0 mi Calm Calm - N/A   Clear
9:55 AM 69.8 °F - 21.2 °F 16% 30.22 in 10.0 mi WNW 4.6 mph - N/A   Clear
10:15 AM 71.6 °F - 21.2 °F 15% 30.21 in 10.0 mi SSW 5.8 mph - N/A   Clear
10:35 AM 71.6 °F - 23.0 °F 16% 30.21 in 10.0 mi Calm Calm - N/A   Clear
10:55 AM 73.4 °F - 21.2 °F 14% 30.20 in 10.0 mi Calm Calm - N/A   Clear
11:15 AM 75.2 °F - 21.2 °F 13% 30.20 in 10.0 mi NNE 5.8 mph - N/A   Clear
11:35 AM 75.2 °F - 23.0 °F 14% 30.19 in 10.0 mi SE 6.9 mph - N/A   Clear
11:55 AM 75.2 °F - 21.2 °F 13% 30.18 in 10.0 mi SW 6.9 mph 20.7 mph N/A   Clear
12:15 PM 77.0 °F - 23.0 °F 13% 30.17 in 10.0 mi SSE 8.1 mph - N/A   Clear
12:35 PM 77.0 °F - 23.0 °F 13% 30.16 in 10.0 mi East 8.1 mph - N/A   Clear
12:55 PM 78.8 °F - 23.0 °F 13% 30.16 in 10.0 mi NE 4.6 mph - N/A   Clear
1:15 PM 78.8 °F - 19.4 °F 11% 30.16 in 10.0 mi North 9.2 mph 19.6 mph N/A   Clear
1:35 PM 78.8 °F - 19.4 °F 11% 30.15 in 10.0 mi NNE 8.1 mph - N/A   Clear
1:55 PM 78.8 °F - 19.4 °F 11% 30.15 in 10.0 mi North 11.5 mph 18.4 mph N/A   Clear
2:15 PM 78.8 °F - 19.4 °F 11% 30.14 in 10.0 mi NNE 6.9 mph 16.1 mph N/A   Clear
2:35 PM 78.8 °F - 21.2 °F 12% 30.13 in 10.0 mi East 3.5 mph 17.3 mph N/A   Clear
2:55 PM 78.8 °F - 19.4 °F 11% 30.12 in 10.0 mi Calm Calm - N/A   Clear
3:15 PM 80.6 °F - 21.2 °F 11% 30.11 in 10.0 mi NNW 3.5 mph - N/A   Clear
3:35 PM 80.6 °F - 23.0 °F 12% 30.11 in 10.0 mi North 6.9 mph 16.1 mph N/A   Clear
3:55 PM 80.6 °F - 21.2 °F 11% 30.10 in 10.0 mi NNW 11.5 mph 20.7 mph N/A   Scattered Clouds
4:15 PM 78.8 °F - 21.2 °F 12% 30.09 in 10.0 mi NNW 6.9 mph - N/A   Scattered Clouds
4:35 PM 78.8 °F - 21.2 °F 12% 30.09 in 10.0 mi NNW 10.4 mph 17.3 mph N/A   Clear
4:55 PM 78.8 °F - 23.0 °F 13% 30.09 in 10.0 mi NW 12.7 mph 21.9 mph N/A   Scattered Clouds
5:15 PM 77.0 °F - 21.2 °F 12% 30.09 in 10.0 mi NNW 11.5 mph 18.4 mph N/A   Scattered Clouds
5:35 PM 77.0 °F - 23.0 °F 13% 30.09 in 10.0 mi NNW 8.1 mph 19.6 mph N/A   Scattered Clouds
5:55 PM 77.0 °F - 23.0 °F 13% 30.09 in 10.0 mi North 11.5 mph 17.3 mph N/A   Mostly Cloudy
6:15 PM 75.2 °F - 24.8 °F 15% 30.09 in 10.0 mi North 12.7 mph 17.3 mph N/A   Mostly Cloudy
6:35 PM 73.4 °F - 26.6 °F 18% 30.10 in 10.0 mi North 10.4 mph 20.7 mph N/A   Scattered Clouds
6:55 PM 69.8 °F - 26.6 °F 20% 30.10 in 10.0 mi North 5.8 mph - N/A   Clear
7:15 PM 68.0 °F - 28.4 °F 23% 30.12 in 10.0 mi NNE 5.8 mph - N/A   Clear
7:35 PM 66.2 °F - 28.4 °F 24% 30.13 in 10.0 mi North 5.8 mph - N/A   Clear
7:55 PM 64.4 °F - 30.2 °F 28% 30.14 in 10.0 mi WSW 4.6 mph - N/A   Clear
8:15 PM 64.4 °F - 28.4 °F 26% 30.15 in 10.0 mi SSW 3.5 mph - N/A   Clear
8:35 PM 62.6 °F - 28.4 °F 27% 30.16 in 10.0 mi Calm Calm - N/A   Clear
8:55 PM 59.0 °F - 28.4 °F 31% 30.16 in 10.0 mi West 4.6 mph - N/A   Clear
9:15 PM 57.2 °F - 28.4 °F 33% 30.17 in 10.0 mi Calm Calm - N/A   Clear
9:35 PM 57.2 °F - 28.4 °F 33% 30.17 in 10.0 mi Calm Calm - N/A   Clear
9:55 PM 51.8 °F - 28.4 °F 41% 30.17 in 10.0 mi Calm Calm - N/A   Clear
10:15 PM 53.6 °F - 28.4 °F 38% 30.17 in 10.0 mi Calm Calm - N/A   Clear
10:35 PM 53.6 °F - 28.4 °F 38% 30.18 in 10.0 mi Calm Calm - N/A   Clear
10:55 PM 53.6 °F - 28.4 °F 38% 30.18 in 10.0 mi North 3.5 mph - N/A   Clear
11:15 PM 51.8 °F - 28.4 °F 41% 30.17 in 10.0 mi North 4.6 mph - N/A   Clear
11:35 PM 50.0 °F - 28.4 °F 43% 30.17 in 10.0 mi Calm Calm - N/A   Clear
11:55 PM 50.0 °F - 30.2 °F 47% 30.17 in 10.0 mi WNW 6.9 mph - N/A   Clear